This demonstration page uses our WeatherBlox Daily Observations layout. Learn more.

41.55636, -103.73856

Hourly Observations for March 21, 2015

Temp ( °F °C ) Dew Point ( °F °C ) Humidity (%) Winds ( mph kmh ) Pressure ( in mb ) Visibility ( mi km ) Precip ( " mm )
12:53 am 00:53 Clear 37 2.8 21 -6.1 52 52 E 8 13 30.07 1018 10 16.0934 0 0
1:53 am 01:53 Clear 36 2.2 21 -6.1 55 55 ENE 3 6 30.08 1019 10 16.0934 0 0
2:53 am 02:53 Clear 35 1.7 21 -6.1 57 57 E 6 9 30.06 1018 10 16.0934 0 0
3:53 am 03:53 Clear 35 1.7 20 -6.7 54 54 SE 3 6 30.04 1017 10 16.0934 0 0
4:53 am 04:53 Clear 33 0.6 20 -6.7 58 58 ESE 5 7 30.04 1017 10 16.0934 0 0
5:53 am 05:53 Clear 29 -1.7 21 -6.1 72 72 Calm 30.04 1017 10 16.0934 0 0
6:53 am 06:53 Clear 29 -1.7 19 -7.2 66 66 ENE 5 7 30.07 1018 10 16.0934 0 0
7:53 am 07:53 Sunny 36 2.2 23 -5 59 59 Calm 30.08 1019 10 16.0934 0 0
8:53 am 08:53 Sunny 41 5 24 -4.4 51 51 VRB 6 9 30.07 1018 10 16.0934 0 0
9:53 am 09:53 Sunny 50 10 26 -3.3 39 39 SE 3 6 30.04 1017 10 16.0934 0 0
10:53 am 10:53 Sunny 60 15.6 25 -3.9 26 26 SE 6 9 30.01 1016 10 16.0934 0 0
11:53 am 11:53 Sunny 67 19.4 26 -3.3 21 21 SSE 8 13 29.96 1015 10 16.0934 0 0
12:53 pm 12:53 Sunny 74 23.3 20 -6.7 13 13 undefined N/A 29.91 1013 10 16.0934 0 0
1:53 pm 13:53 Sunny 76 24.4 19 -7.2 12 12 W 10 17 29.88 1012 10 16.0934 0 0
2:53 pm 14:53 Sunny 78 25.6 19 -7.2 11 11 W 14 22 29.84 1011 10 16.0934 0 0
3:53 pm 15:53 Sunny 78 25.6 14 -10 9 9 W 13 20 29.83 1010 10 16.0934 0 0
4:53 pm 16:53 Sunny 77 25 14 -10 9 9 W 7 11 29.82 1010 10 16.0934 0 0
5:53 pm 17:53 Sunny 72 22.2 16 -8.9 12 12 WSW 9 15 29.84 1011 10 16.0934 0 0
6:53 pm 18:53 Sunny 70 21.1 15 -9.4 12 12 W 3 6 29.85 1011 10 16.0934 0 0
7:53 pm 19:53 Clear 57 13.9 19 -7.2 23 23 ESE 5 7 29.86 1011 10 16.0934 0 0
8:53 pm 20:53 Clear 56 13.3 18 -7.8 22 22 E 3 6 29.86 1011 10 16.0934 0 0
9:53 pm 21:53 Clear 46 7.8 19 -7.2 34 34 NNE 7 11 29.87 1012 10 16.0934 0 0
10:53 pm 22:53 Clear 40 4.4 21 -6.1 47 47 NNW 5 7 29.86 1011 10 16.0934 0 0
11:53 pm 23:53 Clear 40 4.4 20 -6.7 45 45 ESE 5 7 29.84 1010 10 16.0934 0 0

Powered by AerisWeather